Location: Northern Prairie Star Party
(53.2167°N, 112.5333°W)
Time: 11:37:05
(UTC-07:00)

Daily predictions for brighter satellites

Satellite Brightness Start Highest point End
(mag) Time Altitude Azimuth Time Altitude Azimuth Time Altitude Azimuth
Cosmos 2263 Rocket 3.2 16:58:36 10° WSW 17:03:56 42° NW 17:09:17 10° NNE
USA 238 DEB 4.3 16:57:49 10° WSW 17:04:35 52° NNW 17:11:29 10° NE
USA 238 4.3 16:57:54 10° WSW 17:04:41 52° NNW 17:11:35 10° NE
SL-27 R/B 2.6 17:02:02 10° NNW 17:05:15 44° ENE 17:08:29 10° SE
Cosmos 1844 4.0 16:59:58 10° S 17:05:35 55° ESE 17:11:15 10° NE
Cosmos 540 Rocket 3.8 17:01:00 10° NNW 17:05:57 42° NE 17:10:51 10° SE
Cosmos 1814 Rocket 4.2 17:00:52 10° NNW 17:06:16 88° WSW 17:11:39 10° SSE
Cosmos 2227 Rocket 4.2 17:03:32 10° NW 17:06:27 14° NNW 17:09:23 10° NNE
USA 161 1.5 17:04:51 10° NNE 17:06:39 30° E 17:08:33 10° SSE
Cosmos 1802 Rocket 4.0 17:00:31 10° S 17:06:40 84° E 17:12:50 10° NNE
EO 1 Delta rocket 4.2 17:02:14 10° S 17:06:59 83° W 17:12:39 10° N
MSX 3.9 17:01:14 10° SSE 17:07:01 86° ENE 17:12:51 10° NNW
Cosmos 1816 Rocket 4.5 17:02:29 10° N 17:08:38 69° ENE 17:14:45 10° SSE
Cosmos 2278 Rocket 3.0 17:04:15 10° SSE 17:09:12 32° ESE 17:14:11 10° NE
Meteor 1-14 Rocket 4.3 17:03:57 10° N 17:09:35 57° ENE 17:15:04 10° SSE
Cosmos 1437 3.5 17:07:10 10° SSE 17:10:04 33° E 17:12:59 10° NNE
COSMO-SKYMED 1 4.5 17:09:52 10° ENE 17:10:52 11° E 17:11:52 10° E
SL-16 R/B 3.8 17:05:30 10° N 17:11:13 38° WNW 17:16:54 10° SW
COSMOS 2487 4.1 17:11:32 10° N 17:13:47 16° NE 17:16:03 10° E
ALOS 3.6 17:11:27 10° E 17:14:44 19° ENE 17:18:01 10° NNE
YAOGAN 1 3.3 17:13:02 10° SE 17:16:49 30° ENE 17:20:38 10° N
Cosmos 1346 Rocket 4.2 17:14:32 10° SW 17:18:11 37° WNW 17:21:54 10° N
Meteor 2-12 Rocket 4.5 17:14:01 10° S 17:19:59 60° E 17:25:57 10° NNE
CZ-4C R/B 2.9 17:13:25 10° NW 17:20:00 59° NNE 17:27:32 10° ESE
SMAP 3.1 17:16:14 10° SE 17:20:45 55° ENE 17:25:20 10° N
Meteor 2-10 Rocket 3.7 17:17:28 10° SSW 17:22:48 86° WNW 17:28:26 10° NNE
Cosmos 1725 Rocket 4.0 17:16:48 10° S 17:23:02 72° E 17:29:16 10° NNE
Cosmos 841 Rocket 3.6 17:17:42 10° NNW 17:23:02 89° ENE 17:28:19 10° SSE
Cosmos 1606 4.1 17:21:34 10° SE 17:24:17 19° E 17:26:57 10° NE
Cosmos 1707 Rocket 4.3 17:20:20 10° SSW 17:24:43 57° WNW 17:29:07 10° N
SL-23 DEB 4.1 17:21:32 10° W 17:24:56 70° S 17:30:06 10° E
BREEZE-M DEB (TANK) 4.3 17:24:14 10° SSW 17:26:02 20° SSE 17:28:24 10° E
Ariane Rocket 3.0 17:22:09 10° SSE 17:27:12 71° ENE 17:32:17 10° NNW
Meteor 1-26 Rocket 4.3 17:22:24 10° S 17:27:46 53° E 17:33:08 10° NNE
Cosmos 2346 Rocket 4.4 17:22:25 10° N 17:28:36 78° E 17:34:47 10° SSE
DNEPR-1 R/B 3.9 17:31:20 10° WSW 17:35:32 58° NW 17:39:30 12° NE
Cosmos 1340 2.9 17:33:06 10° SSW 17:36:53 74° WNW 17:40:41 10° N
IRS-1A Rocket 4.3 17:31:16 10° SE 17:36:56 60° ENE 17:42:29 10° NNW
Cosmos 1484 Rocket 2.7 17:33:09 10° SSE 17:37:03 74° ENE 17:41:02 10° N
Cosmos 1703 Rocket 4.3 17:33:26 10° SSE 17:37:24 32° E 17:41:23 10° NNE
Cosmos 2297 Rocket 4.3 17:35:13 10° NW 17:37:49 13° N 17:40:27 10° NNE
METEOR-M 4.4 17:33:08 10° SE 17:38:11 45° ENE 17:43:15 10° N
Tsikada Rocket 4.4 17:33:52 10° NNW 17:40:00 69° W 17:46:07 10° S
NOSS 3-2 (C) 4.0 17:34:39 10° WSW 17:40:51 58° NNW 17:47:18 12° NE
CSL-04 Rocket 3.8 17:36:07 10° SSE 17:41:26 83° WSW 17:46:53 10° NNW
Cosmos 2016 Rocket 4.4 17:35:47 10° SSW 17:42:03 68° WNW 17:48:17 10° N
Cosmos 2082 Rocket 2.2 17:37:05 10° NNW 17:42:50 82° ENE 17:48:30 10° SE
BREEZE-M DEB (TANK) 2.5 17:41:58 10° WSW 17:43:55 38° S 17:46:38 12° ESE
Cosmos 1933 3.8 17:40:02 10° SSW 17:44:01 63° WNW 17:48:02 10° N
Cosmos 1536 4.4 17:42:49 10° NNE 17:44:57 16° NE 17:44:57 16° NE
ERS-2 2.5 17:42:15 10° SE 17:45:42 40° ENE 17:49:11 10° N
Cosmos 1486 Rocket 4.2 17:41:28 10° S 17:46:29 49° ESE 17:51:25 11° NE
Cosmos 1602 4.4 17:44:36 10° N 17:48:04 31° ENE 17:51:32 10° SE
NOSS 3-2 (A) 4.2 17:42:12 10° W 17:48:20 49° NNW 17:54:22 14° NE
CZ-4 R/B 1.1 17:45:21 10° SSE 17:49:10 73° ENE 17:53:01 10° N
Cosmos 1633 2.5 17:46:57 10° N 17:50:36 62° ENE 17:54:14 10° SSE
Okean 2 Rocket 3.5 17:46:37 10° N 17:50:56 41° ENE 17:55:14 10° SE
Timation 2 Rocket 4.2 17:46:04 10° NNW 17:52:50 56° NE 17:59:20 10° SE
Meteor 1-20 Rocket 4.2 17:49:07 10° NNW 17:54:45 88° WSW 18:00:14 10° S
Cosmos 1908 Rocket 3.6 17:51:38 10° NNW 17:56:01 80° W 18:00:20 10° S
MOS 1 4.3 17:50:35 10° SE 17:56:09 57° ENE 18:01:45 10° N
CENTAUR R/B 2.7 17:49:50 10° SW 17:56:11 82° NW 18:02:27 15° NE
COSMOS 2455 2.8 17:50:11 10° SW 17:56:13 85° SE 18:01:31 14° NE
Timation 1 Rocket 4.3 17:53:27 10° SSW 17:59:28 80° ESE 18:05:00 13° NE
SKYMED 2 4.5 17:57:29 20° NE 17:59:30 28° E 18:03:14 10° SSE
Cosmos 405 Rocket 4.0 17:58:03 10° SE 18:00:29 21° ESE 18:00:29 21° ESE
CZ-4 R/B 4.4 17:58:06 10° SSE 18:02:14 68° ENE 18:06:24 10° N
CZ-2C R/B 3.9 17:59:55 10° NNE 18:04:18 49° E 18:08:42 10° S
Cosmos 1354 Rocket 4.5 18:00:46 10° S 18:05:38 39° ESE 18:08:45 20° NE
Cosmos 1782 3.0 18:03:12 10° S 18:07:05 50° E 18:10:17 15° NNE
Cosmos 1844 Rocket 3.4 18:04:50 10° SW 18:10:18 51° NW 18:15:44 10° NNE
Cosmos 44 Rocket 3.6 18:06:39 10° NW 18:11:29 67° SW 18:16:23 10° SSE
ATLAS CENTAUR R/B 3.1 18:10:53 10° NNW 18:13:13 16° N 18:13:40 15° NNE
Cosmos 1862 Rocket 4.4 18:10:45 10° SSW 18:15:06 52° WNW 18:19:31 10° N
Cosmos 292 Rocket 3.7 18:10:26 10° NNW 18:15:14 89° ENE 18:20:00 10° SSE
SPOT 3 Rocket 3.5 18:11:52 10° SSE 18:17:01 65° ENE 18:22:12 10° NNW
Cosmos 1464 Rocket 4.0 18:12:07 10° SSE 18:18:02 55° E 18:24:04 10° NNE
Cosmos 1538 Rocket 4.4 18:13:27 10° NNW 18:18:30 42° NE 18:21:23 23° ESE
Okean 1-7 3.0 18:16:49 10° S 18:21:08 59° E 18:24:47 14° NNE
Meteor 1-5 Rocket 4.4 18:17:12 10° N 18:22:19 42° ENE 18:27:21 10° SE
Sich 1 Rocket 4.4 18:18:26 10° NNW 18:22:46 54° W 18:27:07 10° S
FENGYUN 3A 3.6 18:17:56 10° SSE 18:23:16 63° ENE 18:28:37 10° N
Meteor 2-20 Rocket 4.5 18:18:00 10° N 18:23:59 53° ENE 18:29:55 10° SSE
MTI 3.9 18:29:09 53° SE 18:29:09 53° SE 18:32:03 10° S
Cosmos 2233 Rocket 4.4 18:22:44 10° SSW 18:28:57 66° WNW 18:35:08 10° N
Cosmos 44 4.3 18:26:11 10° NW 18:30:35 45° SW 18:35:13 10° SSE
MONITOR-E 4.0 18:27:41 10° SSE 18:30:44 87° WSW 18:33:50 10° NNW
Cosmos 1437 Rocket 4.5 18:30:04 10° N 18:31:30 19° NNE 18:31:30 19° NNE
Lacrosse 5 2.1 18:28:48 10° W 18:33:48 55° N 18:35:34 36° ENE
Cosmos 1833 Rocket 3.7 18:28:39 10° NW 18:34:01 47° WSW 18:39:23 10° S
Resurs 01 Rocket 4.0 18:37:32 10° NNE 18:37:32 10° NNE 18:37:37 10° NNE
Meteor 1-27 Rocket 4.0 18:28:57 10° SSE 18:34:35 47° E 18:39:29 14° NNE
USA 116 3.9 18:33:22 10° NNE 18:37:59 84° WNW 18:42:01 10° SSW
Cosmos 405 3.0 18:35:16 10° NNW 18:38:52 79° W 18:42:28 10° S
Cosmos 1782 Rocket 4.5 18:36:35 10° NNW 18:40:48 49° W 18:45:01 10° S
Meteor 1-28 Rocket 3.8 18:42:12 16° N 18:45:03 56° WNW 18:48:41 10° SSW
Meteor 1-10 Rocket 4.2 18:39:36 10° S 18:45:20 83° E 18:51:13 10° NNE
ATLAS 3B R/B 3.7 18:39:48 10° WNW 18:46:09 35° N 18:49:01 25° NE
COSMO-SKYMED 1 2.4 18:46:07 36° NNE 18:47:50 74° ESE 18:52:10 10° S
NOAA 12 4.1 18:43:50 10° SSE 18:49:10 84° WSW 18:54:31 10° NNW
Cosmos 2263 Rocket 4.3 18:45:53 10° WNW 18:49:25 17° NNW 18:52:48 10° NNE
COSMOS 2487 2.7 18:46:04 10° NNW 18:49:35 68° WSW 18:50:41 40° S
Cosmos 2297 3.6 18:45:03 10° SSW 18:50:45 73° ESE 18:53:13 36° NE
ALOS 2.3 18:46:58 10° SSE 18:51:40 79° WSW 18:56:23 10° NNW
YAOGAN 1 4.0 18:48:47 10° SSW 18:52:51 39° W 18:56:56 10° NNW
Cosmos 2278 Rocket 2.7 18:47:25 10° SW 18:53:01 59° NW 18:56:50 21° NNE
Cosmos 2227 Rocket 4.1 18:49:56 10° NNW 18:53:06 15° NNE 18:53:22 15° NNE
Cosmos 773 Rocket 3.9 18:51:11 10° NNW 18:56:22 63° ENE 18:57:14 54° ESE
Landsat 4 4.1 18:56:38 34° N 18:58:04 61° WNW 19:01:49 10° SSW
Cosmos 1513 Rocket 4.4 18:52:37 10° S 18:58:54 89° E 19:05:07 10° N
Cosmos 1606 3.7 18:56:08 10° SSW 18:59:45 44° WNW 19:02:04 20° N
Cosmos 1441 Rocket 4.0 18:57:00 10° S 18:59:39 41° S 18:59:39 41° S
Cosmos 968 Rocket 3.9 18:56:36 10° S 19:00:45 44° SE 19:00:45 44° SE
USA 234 4.0 19:01:47 32° SE 19:02:02 32° SE 19:07:47 10° SSW
EO 1 Del DPAF 3.4 19:07:34 69° WSW 19:07:34 69° WSW 19:11:05 10° SSW
Cosmos 1503 Rocket 4.1 19:02:20 10° SSW 19:07:36 76° WNW 19:09:46 36° NNE
CZ-4C R/B 3.4 19:02:00 10° NW 19:08:47 57° SW 19:16:25 10° SSE
Meteor 1-11 Rocket 4.2 19:03:26 10° NNW 19:09:16 65° W 19:14:57 10° S
DMSP B5D1-3 4.4 19:15:21 65° NE 19:16:06 80° ESE 19:21:16 10° SSW
Cosmos 2151 Rocket 4.0 19:11:54 10° NNW 19:16:16 61° W 19:20:37 10° S
Nadezhda 4 Rocket 4.2 19:14:27 10° NNW 19:20:33 68° W 19:26:37 10° S
Cosmos 1536 4.1 19:18:22 10° NNW 19:20:45 33° NNW 19:20:45 33° NNW
Cosmos 2297 Rocket 4.1 19:20:50 10° NNW 19:23:27 16° N 19:23:27 16° N
Cosmos 2034 Rocket 4.4 19:30:24 10° SSW 19:36:42 63° WNW 19:43:01 10° N
Cosmos 405 Rocket 4.5 19:33:20 10° SW 19:35:43 29° WSW 19:35:43 29° WSW
Cosmos 1092 Rocket 4.2 19:33:38 10° NNW 19:39:45 69° W 19:45:53 10° S
COSMOS 2455 4.1 19:37:23 10° W 19:42:49 34° NNW 19:44:40 28° N
Cosmos 1627 Rocket 4.5 19:40:57 10° NNW 19:47:23 85° W 19:48:25 65° S
CENTAUR R/B 3.6 19:41:30 10° W 19:47:50 42° NNW 19:49:37 36° NNE
Cosmos 2285 Rocket 3.9 19:45:04 10° NNW 19:51:14 84° WNW 19:51:14 84° WNW
ATLAS CENTAUR R/B 4.1 19:49:42 10° NNW 19:49:56 11° NNW 19:49:56 11° NNW
Lacrosse 5 3.5 20:12:05 10° WNW 20:14:46 31° WNW 20:14:46 31° WNW
Cosmos 2026 Rocket 4.5 20:13:07 10° NNW 20:19:11 59° W 20:19:11 59° W
Cosmos 2278 Rocket 4.3 20:34:11 10° WNW 20:38:20 20° NNW 20:38:40 20° NNW
ATLAS 3B R/B 3.8 20:31:49 10° NW 20:36:16 35° NNW 20:36:16 35° NNW
Cosmos 2227 Rocket 4.5 20:33:54 10° NNW 20:35:11 16° NNW 20:35:11 16° NNW
CENTAUR R/B 4.5 21:33:31 10° WNW 21:36:48 27° NW 21:36:48 27° NW
